Regional Weather Roundup
Issued by NWS

Home | Current Version | Previous Version | Text Only | Print | Product List | Glossary Off
Versions: 1 2 3 4 5 6 7 8 9 10 11 12 13 14 15 16 17 18 19 20 21 22 23 24 25 26 27 28 29 30 31 32 33 34 35 36 37 38 39 40 41 42 43 44 45 46 47 48 49

000
ASUS45 KSLC 181010
RWRUT

UTAH REGIONAL WEATHER ROUNDUP
NATIONAL WEATHER SERVICE SALT LAKE CITY UT
400 AM MDT THU SEP 18 2014

UTZ001>011-023>025-181100-

NORTHERN UTAH

CITY           SKY/WX    TMP DP  RH WIND       PRES   REMARKS
HILL AFB       PTCLDY    70  43  36 E14       29.92F
LOGAN          CLEAR     53  47  79 CALM      29.90S
OGDEN          PTCLDY    69  43  38 S13       29.89S
PROVO AIRPORT  CLEAR     63  43  48 SE7       29.97S
SALT LAKE CITY PTCLDY    72  44  36 SE14      29.89S
VERNAL         CLEAR     54  40  59 W5        30.04S
WENDOVER       PTCLDY    73  45  35 NE8       29.86S
HEBER CITY     CLEAR     46  43  87 CALM      30.05S
WEST JORDAN    CLEAR     68  45  42 S10       29.94S

$$

UTZ012>022-026-027-181100-

SOUTHERN UTAH

CITY           SKY/WX    TMP DP  RH WIND       PRES   REMARKS
BRYCE CANYON   CLEAR     46  43  89 W5        30.20F
CEDAR CITY     CLEAR     60  49  66 SE5       30.03F
MILFORD        CLEAR     61  49  64 S6        29.98F
MOAB/CYNLANDS  CLEAR     62  45  53 CALM      29.97S
PRICE          CLEAR     63  35  35 SE3       30.06S
ST GEORGE      SUNNY     70  55  60 SE6       29.88S
KANAB            N/A     57  46  67 CALM      30.05F

$$

REGIONAL REPORTS     COLORADO/ARIZONA

CITY           SKY/WX    TMP DP  RH WIND       PRES   REMARKS
CRAIG, CO      CLEAR     41  37  86 CALM      30.12S
GRAND JUNCTION CLEAR     60  40  47 SE8       30.02R
RIFLE          CLEAR     52  40  63 SW5       30.09R
MONTROSE       CLEAR     55  43  63 E6        30.11S
CORTEZ         CLEAR     46  45  96 CALM      30.12F
PAGE, AZ       CLEAR     70  52  52 SW5       29.97S
GRAND CANYON   CLEAR     45  43  93 CALM      30.13F
KINGMAN        CLEAR     66  60  81 S3        29.92S
FLAGSTAFF      CLEAR     49  47  93 CALM      30.14F

$$

REGIONAL REPORTS    NEVADA/IDAHO/WYOMING

CITY           SKY/WX    TMP DP  RH WIND       PRES   REMARKS
LAS VEGAS, NV  PTCLDY    84  59  42 S10       29.75F
ELY            CLEAR     56  45  66 S12       30.05F
ELKO           MOCLDY    67  46  47 CALM      29.90S
POCATELLO, ID  PTCLDY    65  47  52 N12       29.85F
BURLEY         MOCLDY    68  45  43 S6        29.79S
EVANSTON, WY   PTCLDY    60  37  42 SE8       30.12F
ROCK SPRINGS   CLEAR     53  34  48 SE6       30.11F

$$


USA.gov is the U.S. government's official web portal to all federal, state and local government web resources and services.